| time (UTC) | temp C | wind direction | speed KPH | gust KPH | rain 1hr cm | rain 24hr cm | rain mn cm | humidity % | barometer mb |
| 20260906123051 | 22 | 246 | 3.2 | 3.2 | 0.00 | 0.00 | 0.00 | 97 | 1013.6 |
| 20260906122550 | 22 | 231 | 3.2 | 3.2 | 0.00 | 0.00 | 0.00 | 97 | 1013.5 |
| 20260906122046 | 22 | 192 | 1.6 | 3.2 | 0.00 | 0.00 | 0.00 | 97 | 1013.4 |
| 20260906121542 | 22 | 181 | 1.6 | 1.6 | 0.00 | 0.00 | 0.00 | 96 | 1013.4 |
| 20260906121038 | 22 | 172 | 0.0 | 3.2 | 0.00 | 0.00 | 0.00 | 97 | 1013.3 |
| 20260906120533 | 22 | 204 | 1.6 | 3.2 | 0.00 | 0.00 | 0.00 | 97 | 1013.4 |
| 20260906120031 | 22 | 216 | 0.0 | 0.0 | 0.00 | 0.00 | 0.00 | 97 | 1013.2 |
| 20260906115531 | 22 | 220 | 0.0 | 3.2 | 0.00 | 0.00 | 0.00 | 97 | 1013.2 |
| 20260906115026 | 22 | 216 | 0.0 | 0.0 | 0.00 | 0.00 | 0.00 | 97 | 1013.2 |
| 20260906114526 | 22 | 319 | 0.0 | 3.2 | 0.00 | 0.00 | 0.00 | 97 | 1013.3 |
| 20260906114022 | 21 | 228 | 3.2 | 3.2 | 0.00 | 0.00 | 0.00 | 97 | 1013.1 |
| 20260906113520 | 21 | 213 | 0.0 | 3.2 | 0.00 | 0.00 | 0.00 | 97 | 1013.2 |
| 20260906113016 | 21 | 192 | 3.2 | 3.2 | 0.00 | 0.00 | 0.00 | 97 | 1013.1 |
| 20260906112510 | 21 | 199 | 1.6 | 3.2 | 0.00 | 0.00 | 0.00 | 97 | 1013.2 |
| 20260906112007 | 21 | 228 | 0.0 | 3.2 | 0.00 | 0.00 | 0.00 | 97 | 1013.2 |
| 20260906111506 | 21 | 219 | 0.0 | 3.2 | 0.00 | 0.00 | 0.00 | 97 | 1013.0 |
| 20260906111002 | 21 | 241 | 0.0 | 3.2 | 0.00 | 0.00 | 0.00 | 97 | 1013.1 |
| 20260906110456 | 21 | 198 | 3.2 | 3.2 | 0.00 | 0.00 | 0.00 | 96 | 1013.2 |
| 20260906105955 | 21 | 190 | 3.2 | 3.2 | 0.00 | 0.00 | 0.00 | 97 | 1013.3 |
| 20260906105451 | 21 | 230 | 0.0 | 3.2 | 0.00 | 0.00 | 0.00 | 97 | 1013.2 |
| 20260906104947 | 21 | 220 | 1.6 | 3.2 | 0.00 | 0.00 | 0.00 | 97 | 1013.1 |
| 20260906104445 | 21 | 212 | 3.2 | 3.2 | 0.00 | 0.00 | 0.00 | 97 | 1013.2 |
| 20260906103945 | 21 | 222 | 0.0 | 1.6 | 0.00 | 0.00 | 0.00 | 97 | 1013.2 |
| 20260906103443 | 21 | 228 | 0.0 | 1.6 | 0.00 | 0.00 | 0.00 | 97 | 1013.1 |
| 20260906102938 | 21 | 237 | 0.0 | 3.2 | 0.00 | 0.00 | 0.00 | 96 | 1013.2 |
| 20260906102438 | 21 | 196 | 3.2 | 4.8 | 0.00 | 0.00 | 0.00 | 96 | 1013.2 |
| 20260906101933 | 21 | 196 | 3.2 | 3.2 | 0.00 | 0.00 | 0.00 | 97 | 1013.2 |
| 20260906101428 | 21 | 223 | 0.0 | 1.6 | 0.00 | 0.00 | 0.00 | 97 | 1013.1 |
| 20260906100924 | 21 | 221 | 0.0 | 0.0 | 0.00 | 0.00 | 0.00 | 97 | 1013.0 |
| 20260906100423 | 21 | 294 | 0.0 | 1.6 | 0.00 | 0.00 | 0.00 | 97 | 1013.1 |
| 20260906095918 | 21 | 203 | 0.0 | 1.6 | 0.00 | 0.00 | 0.00 | 96 | 1013.0 |
| 20260906095414 | 21 | 195 | 3.2 | 3.2 | 0.00 | 0.00 | 0.00 | 96 | 1013.0 |
| 20260906094914 | 21 | 204 | 1.6 | 3.2 | 0.00 | 0.00 | 0.00 | 96 | 1012.9 |
| 20260906094408 | 21 | 322 | 0.0 | 0.0 | 0.00 | 0.00 | 0.00 | 96 | 1013.0 |
| 20260906093905 | 21 | 300 | 0.0 | 0.0 | 0.00 | 0.00 | 0.00 | 96 | 1012.9 |
| 20260906093401 | 21 | 221 | 1.6 | 1.6 | 0.00 | 0.00 | 0.00 | 97 | 1012.6 |
| 20260906092901 | 21 | 244 | 0.0 | 1.6 | 0.00 | 0.00 | 0.00 | 97 | 1012.7 |
| 20260906092400 | 21 | 189 | 3.2 | 3.2 | 0.00 | 0.00 | 0.00 | 96 | 1012.8 |
| 20260906091856 | 21 | 208 | 3.2 | 3.2 | 0.00 | 0.00 | 0.00 | 96 | 1012.8 |
| 20260906091352 | 21 | 194 | 1.6 | 3.2 | 0.00 | 0.00 | 0.00 | 96 | 1012.5 |
| 20260906090848 | 21 | 187 | 3.2 | 3.2 | 0.00 | 0.00 | 0.00 | 96 | 1012.8 |
| 20260906090347 | 22 | 171 | 3.2 | 3.2 | 0.00 | 0.00 | 0.00 | 97 | 1012.7 |
| 20260906085842 | 22 | 208 | 0.0 | 1.6 | 0.00 | 0.00 | 0.00 | 97 | 1012.7 |
| 20260906085341 | 21 | 210 | 1.6 | 3.2 | 0.00 | 0.00 | 0.00 | 96 | 1012.7 |
| 20260906084836 | 22 | 197 | 3.2 | 3.2 | 0.00 | 0.00 | 0.00 | 96 | 1012.7 |
| 20260906084336 | 22 | 195 | 1.6 | 3.2 | 0.00 | 0.00 | 0.00 | 96 | 1012.8 |
| 20260906083831 | 22 | 214 | 1.6 | 3.2 | 0.00 | 0.00 | 0.00 | 96 | 1012.7 |
| 20260906083327 | 21 | 224 | 0.0 | 0.0 | 0.00 | 0.00 | 0.00 | 96 | 1012.6 |
| 20260906082826 | 21 | 201 | 3.2 | 3.2 | 0.00 | 0.00 | 0.00 | 96 | 1012.6 |
| 20260906082321 | 22 | 195 | 3.2 | 3.2 | 0.00 | 0.00 | 0.00 | 96 | 1012.7 |
| 20260906081817 | 22 | 191 | 1.6 | 1.6 | 0.00 | 0.00 | 0.00 | 96 | 1012.6 |
| 20260906081313 | 22 | 185 | 3.2 | 3.2 | 0.00 | 0.00 | 0.00 | 96 | 1012.6 |
| 20260906080809 | 22 | 192 | 1.6 | 3.2 | 0.00 | 0.00 | 0.00 | 96 | 1012.6 |
| 20260906080305 | 22 | 187 | 0.0 | 1.6 | 0.00 | 0.00 | 0.00 | 96 | 1012.6 |
| 20260906075804 | 22 | 220 | 0.0 | 3.2 | 0.00 | 0.00 | 0.00 | 96 | 1012.4 |
| 20260906075306 | 22 | 188 | 3.2 | 3.2 | 0.00 | 0.00 | 0.00 | 96 | 1012.6 |
| 20260906074759 | 22 | 182 | 1.6 | 1.6 | 0.00 | 0.00 | 0.00 | 96 | 1012.7 |
| 20260906074259 | 22 | 199 | 1.6 | 1.6 | 0.00 | 0.00 | 0.00 | 96 | 1012.6 |
| 20260906073759 | 22 | 205 | 0.0 | 1.6 | 0.00 | 0.00 | 0.00 | 96 | 1012.5 |
| 20260906073259 | 22 | 231 | 0.0 | 1.6 | 0.00 | 0.00 | 0.00 | 96 | 1012.7 |
| 20260906072755 | 22 | 204 | 1.6 | 1.6 | 0.00 | 0.00 | 0.00 | 96 | 1012.9 |
| 20260906072250 | 22 | 186 | 1.6 | 3.2 | 0.00 | 0.00 | 0.00 | 96 | 1012.9 |
| 20260906071746 | 22 | 225 | 0.0 | 1.6 | 0.00 | 0.00 | 0.00 | 96 | 1012.7 |
| 20260906071246 | 22 | 169 | 3.2 | 3.2 | 0.00 | 0.00 | 0.00 | 96 | 1012.7 |
| 20260906070743 | 22 | 179 | 0.0 | 1.6 | 0.00 | 0.00 | 0.00 | 96 | 1012.6 |
| 20260906070238 | 22 | 315 | 0.0 | 1.6 | 0.00 | 0.00 | 0.00 | 96 | 1012.9 |
| 20260906065737 | 22 | 202 | 1.6 | 3.2 | 0.00 | 0.00 | 0.00 | 96 | 1012.7 |
| 20260906065233 | 22 | 177 | 3.2 | 3.2 | 0.00 | 0.00 | 0.00 | 96 | 1012.7 |
| 20260906064729 | 22 | 245 | 0.0 | 1.6 | 0.00 | 0.00 | 0.00 | 96 | 1012.8 |
| 20260906064224 | 22 | 202 | 1.6 | 1.6 | 0.00 | 0.00 | 0.00 | 96 | 1013.1 |
| 20260906063719 | 22 | 213 | 0.0 | 1.6 | 0.00 | 0.00 | 0.00 | 96 | 1012.8 |
| 20260906063215 | 22 | 178 | 1.6 | 3.2 | 0.00 | 0.00 | 0.00 | 96 | 1013.1 |
| 20260906062710 | 22 | 172 | 3.2 | 4.8 | 0.00 | 0.00 | 0.00 | 95 | 1012.8 |
| 20260906062209 | 22 | 169 | 3.2 | 3.2 | 0.00 | 0.00 | 0.00 | 95 | 1012.7 |
| 20260906061705 | 22 | 192 | 1.6 | 1.6 | 0.00 | 0.00 | 0.00 | 95 | 1012.6 |
| 20260906061201 | 22 | 220 | 0.0 | 1.6 | 0.00 | 0.00 | 0.00 | 95 | 1012.9 |
| 20260906060657 | 22 | 205 | 0.0 | 0.0 | 0.00 | 0.00 | 0.00 | 95 | 1013.0 |
| 20260906060154 | 22 | 200 | 1.6 | 3.2 | 0.00 | 0.00 | 0.00 | 95 | 1013.0 |
| 20260906055649 | 22 | 209 | 0.0 | 3.2 | 0.00 | 0.00 | 0.00 | 95 | 1013.0 |
| 20260906055144 | 22 | 221 | 0.0 | 1.6 | 0.00 | 0.00 | 0.00 | 95 | 1013.1 |
| 20260906054639 | 22 | 196 | 0.0 | 3.2 | 0.00 | 0.00 | 0.00 | 95 | 1013.2 |
| 20260906054134 | 22 | 238 | 1.6 | 3.2 | 0.00 | 0.00 | 0.00 | 96 | 1013.1 |
| 20260906053631 | 22 | 231 | 1.6 | 3.2 | 0.00 | 0.00 | 0.00 | 96 | 1013.1 |
| 20260906053131 | 22 | 197 | 4.8 | 4.8 | 0.00 | 0.00 | 0.00 | 96 | 1013.0 |
| 20260906052627 | 22 | 223 | 1.6 | 1.6 | 0.00 | 0.00 | 0.00 | 96 | 1013.0 |
| 20260906052123 | 22 | 227 | 0.0 | 3.2 | 0.00 | 0.00 | 0.00 | 96 | 1013.3 |
| 20260906051620 | 22 | 250 | 0.0 | 1.6 | 0.00 | 0.00 | 0.00 | 95 | 1013.3 |
| 20260906051114 | 22 | 232 | 0.0 | 1.6 | 0.00 | 0.00 | 0.00 | 95 | 1013.3 |
| 20260906050610 | 22 | 241 | 1.6 | 3.2 | 0.00 | 0.00 | 0.00 | 95 | 1013.2 |
| 20260906050105 | 22 | 183 | 3.2 | 3.2 | 0.00 | 0.00 | 0.00 | 95 | 1013.2 |
| 20260906045603 | 22 | 186 | 1.6 | 1.6 | 0.00 | 0.00 | 0.00 | 95 | 1013.2 |
| 20260906045059 | 22 | 184 | 1.6 | 3.2 | 0.00 | 0.00 | 0.00 | 95 | 1013.2 |
| 20260906044554 | 22 | 183 | 1.6 | 3.2 | 0.00 | 0.00 | 0.00 | 94 | 1013.2 |
| 20260906044049 | 22 | 219 | 0.0 | 1.6 | 0.00 | 0.00 | 0.00 | 94 | 1013.2 |
| 20260906043545 | 22 | 196 | 0.0 | 3.2 | 0.00 | 0.00 | 0.00 | 94 | 1013.2 |
| 20260906043041 | 22 | 225 | 3.2 | 3.2 | 0.00 | 0.00 | 0.00 | 95 | 1013.0 |
| 20260906042539 | 22 | 215 | 0.0 | 3.2 | 0.00 | 0.00 | 0.00 | 95 | 1013.2 |
| 20260906042035 | 22 | 234 | 0.0 | 1.6 | 0.00 | 0.00 | 0.00 | 95 | 1013.2 |
| 20260906041531 | 22 | 222 | 1.6 | 3.2 | 0.00 | 0.00 | 0.00 | 95 | 1013.1 |
| 20260906041031 | 22 | 214 | 0.0 | 0.0 | 0.00 | 0.00 | 0.00 | 95 | 1013.1 |
| 20260906040526 | 22 | 203 | 3.2 | 3.2 | 0.00 | 0.00 | 0.00 | 95 | 1013.3 |
| 20260906040022 | 22 | 180 | 1.6 | 3.2 | 0.00 | 0.28 | 0.28 | 95 | 1013.2 |
| 20260906035516 | 22 | 303 | 0.0 | 1.6 | 0.00 | 0.28 | 0.28 | 95 | 1013.0 |
| 20260906035013 | 22 | 238 | 0.0 | 1.6 | 0.00 | 0.28 | 0.28 | 95 | 1013.3 |
| 20260906034512 | 22 | 209 | 1.6 | 3.2 | 0.00 | 0.28 | 0.28 | 95 | 1013.2 |
| 20260906034007 | 22 | 277 | 0.0 | 1.6 | 0.00 | 0.28 | 0.28 | 94 | 1013.3 |
| 20260906033502 | 22 | 288 | 0.0 | 0.0 | 0.00 | 0.28 | 0.28 | 94 | 1013.3 |
| 20260906032958 | 22 | 220 | 1.6 | 3.2 | 0.00 | 0.28 | 0.28 | 94 | 1013.3 |
| 20260906032454 | 22 | 310 | 0.0 | 1.6 | 0.00 | 0.28 | 0.28 | 94 | 1013.4 |
| 20260906031954 | 22 | 327 | 0.0 | 1.6 | 0.00 | 0.28 | 0.28 | 93 | 1013.5 |
| 20260906031450 | 22 | 282 | 0.0 | 0.0 | 0.00 | 0.28 | 0.28 | 93 | 1013.5 |
| 20260906030945 | 23 | 230 | 3.2 | 3.2 | 0.00 | 0.28 | 0.28 | 94 | 1013.7 |
| 20260906030439 | 23 | 214 | 0.0 | 3.2 | 0.00 | 0.28 | 0.28 | 94 | 1013.7 |
| 20260906025934 | 23 | 215 | 1.6 | 3.2 | 0.00 | 0.28 | 0.28 | 94 | 1013.9 |
| 20260906025434 | 22 | 333 | 0.0 | 3.2 | 0.00 | 0.28 | 0.28 | 94 | 1014.1 |
| 20260906024933 | 23 | 191 | 3.2 | 6.4 | 0.00 | 0.28 | 0.28 | 94 | 1014.5 |
| 20260906024433 | 22 | 170 | 3.2 | 3.2 | 0.00 | 0.28 | 0.28 | 93 | 1014.2 |
| 20260906023933 | 23 | 262 | 0.0 | 1.6 | 0.00 | 0.28 | 0.28 | 93 | 1014.1 |
| 20260906023430 | 23 | 2 | 1.6 | 3.2 | 0.00 | 0.28 | 0.28 | 94 | 1014.4 |
| 20260906022930 | 23 | 289 | 0.0 | 6.4 | 0.00 | 0.28 | 0.28 | 94 | 1014.7 |
| 20260906022425 | 23 | 320 | 0.0 | 1.6 | 0.00 | 0.28 | 0.28 | 93 | 1014.1 |
| 20260906021920 | 23 | 43 | 1.6 | 6.4 | 0.00 | 0.28 | 0.28 | 93 | 1014.2 |
| 20260906021420 | 23 | 195 | 4.8 | 9.7 | 0.00 | 0.28 | 0.28 | 94 | 1014.4 |
| 20260906020914 | 23 | 208 | 6.4 | 6.4 | 0.00 | 0.28 | 0.28 | 94 | 1014.4 |
| 20260906020409 | 23 | 244 | 0.0 | 1.6 | 0.00 | 0.28 | 0.28 | 95 | 1014.1 |
| 20260906015903 | 23 | 182 | 3.2 | 3.2 | 0.00 | 0.28 | 0.28 | 95 | 1014.0 |
| 20260906015403 | 23 | 212 | 3.2 | 3.2 | 0.00 | 0.28 | 0.28 | 95 | 1014.2 |
| 20260906014903 | 23 | 168 | 3.2 | 3.2 | 0.00 | 0.28 | 0.28 | 94 | 1014.3 |
| 20260906014403 | 23 | 161 | 3.2 | 4.8 | 0.00 | 0.28 | 0.28 | 94 | 1014.0 |
| 20260906013859 | 23 | 233 | 3.2 | 6.4 | 0.00 | 0.28 | 0.28 | 94 | 1013.7 |
| 20260906013354 | 23 | 184 | 3.2 | 3.2 | 0.00 | 0.28 | 0.28 | 94 | 1013.7 |
| 20260906012850 | 23 | 201 | 3.2 | 3.2 | 0.00 | 0.28 | 0.28 | 94 | 1013.4 |
| 20260906012344 | 23 | 194 | 3.2 | 3.2 | 0.00 | 0.28 | 0.28 | 94 | 1013.5 |
| 20260906011844 | 23 | 210 | 0.0 | 1.6 | 0.00 | 0.28 | 0.28 | 94 | 1013.4 |
| 20260906011339 | 23 | 139 | 4.8 | 4.8 | 0.00 | 0.28 | 0.28 | 94 | 1013.6 |
| 20260906010835 | 23 | 216 | 1.6 | 3.2 | 0.00 | 0.28 | 0.28 | 94 | 1014.0 |
| 20260906010331 | 23 | 196 | 3.2 | 3.2 | 0.00 | 0.28 | 0.28 | 93 | 1013.6 |
| 20260906005826 | 23 | 177 | 1.6 | 3.2 | 0.00 | 0.28 | 0.28 | 93 | 1013.3 |
| 20260906005325 | 23 | 184 | 3.2 | 3.2 | 0.00 | 0.28 | 0.28 | 93 | 1013.0 |
| 20260906004824 | 23 | 156 | 3.2 | 3.2 | 0.00 | 0.28 | 0.28 | 92 | 1012.8 |
| 20260906004324 | 23 | 187 | 3.2 | 3.2 | 0.00 | 0.28 | 0.28 | 91 | 1012.7 |
| 20260906003819 | 23 | 215 | 3.2 | 3.2 | 0.00 | 0.28 | 0.28 | 91 | 1012.9 |
| 20260906003315 | 23 | 180 | 3.2 | 4.8 | 0.00 | 0.28 | 0.28 | 90 | 1012.4 |
| 20260906002810 | 24 | 179 | 1.6 | 3.2 | 0.00 | 0.28 | 0.28 | 90 | 1012.3 |
| 20260906002309 | 24 | 188 | 3.2 | 3.2 | 0.00 | 0.28 | 0.28 | 88 | 1012.3 |
| 20260906001805 | 25 | 164 | 3.2 | 3.2 | 0.00 | 0.28 | 0.28 | 88 | 1012.5 |
| 20260906001300 | 25 | 175 | 3.2 | 4.8 | 0.36 | 0.28 | 0.28 | 85 | 1012.2 |
| 20260906000755 | 25 | 226 | 3.2 | 6.4 | 1.63 | 0.28 | 0.28 | 85 | 1012.3 |
| 20260906000256 | 26 | 175 | 3.2 | 3.2 | 1.32 | 0.23 | 0.23 | 80 | 1012.7 |
| 20260905235750 | 27 | 201 | 1.6 | 4.8 | 0.05 | 0.00 | 0.00 | 78 | 1012.6 |
| 20260905235250 | 27 | 164 | 6.4 | 9.7 | 0.00 | 0.00 | 0.00 | 73 | 1013.0 |
| 20260905234746 | 28 | 228 | 1.6 | 6.4 | 0.00 | 0.00 | 0.00 | 71 | 1013.2 |
| 20260905234241 | 29 | 203 | 3.2 | 8.0 | 0.00 | 0.00 | 0.00 | 67 | 1012.9 |
| 20260905233737 | 30 | 195 | 3.2 | 4.8 | 0.00 | 0.00 | 0.00 | 66 | 1012.8 |
| 20260905233236 | 31 | 193 | 3.2 | 12.9 | 0.00 | 0.00 | 0.00 | 64 | 1012.7 |
| 20260905232736 | 31 | 9 | 3.2 | 6.4 | 0.00 | 0.00 | 0.00 | 66 | 1012.2 |
| 20260905232232 | 31 | 231 | 4.8 | 9.7 | 0.00 | 0.00 | 0.00 | 65 | 1011.6 |
| 20260905231727 | 31 | 203 | 8.0 | 9.7 | 0.00 | 0.00 | 0.00 | 64 | 1011.4 |
| 20260905231223 | 31 | 232 | 3.2 | 6.4 | 0.00 | 0.00 | 0.00 | 64 | 1011.9 |
| 20260905230719 | 31 | 204 | 4.8 | 8.0 | 0.00 | 0.00 | 0.00 | 64 | 1011.8 |
| 20260905230216 | 31 | 204 | 6.4 | 9.7 | 0.00 | 0.00 | 0.00 | 64 | 1011.8 |
| 20260905225716 | 32 | 171 | 4.8 | 6.4 | 0.00 | 0.00 | 0.00 | 65 | 1012.0 |
| 20260905225211 | 32 | 213 | 3.2 | 12.9 | 0.00 | 0.00 | 0.00 | 64 | 1011.8 |
| 20260905224711 | 32 | 161 | 4.8 | 6.4 | 0.00 | 0.00 | 0.00 | 63 | 1011.9 |
| 20260905224206 | 32 | 204 | 4.8 | 8.0 | 0.00 | 0.00 | 0.00 | 63 | 1011.7 |
| 20260905223702 | 32 | 191 | 6.4 | 8.0 | 0.00 | 0.00 | 0.00 | 63 | 1011.8 |
| 20260905223159 | 32 | 193 | 4.8 | 6.4 | 0.00 | 0.00 | 0.00 | 63 | 1011.8 |
| 20260905222654 | 32 | 168 | 6.4 | 20.9 | 0.00 | 0.00 | 0.00 | 62 | 1011.6 |
| 20260905222154 | 32 | 184 | 6.4 | 9.7 | 0.00 | 0.00 | 0.00 | 63 | 1011.7 |
| 20260905221649 | 32 | 218 | 4.8 | 9.7 | 0.00 | 0.00 | 0.00 | 63 | 1011.5 |
| 20260905221146 | 32 | 273 | 8.0 | 9.7 | 0.00 | 0.00 | 0.00 | 62 | 1011.6 |
| 20260905220642 | 33 | 171 | 6.4 | 11.3 | 0.00 | 0.00 | 0.00 | 62 | 1011.6 |
| 20260905220138 | 33 | 203 | 3.2 | 6.4 | 0.00 | 0.00 | 0.00 | 61 | 1011.4 |
| 20260905215637 | 33 | 225 | 4.8 | 14.5 | 0.00 | 0.00 | 0.00 | 62 | 1011.6 |
| 20260905215133 | 33 | 180 | 9.7 | 12.9 | 0.00 | 0.00 | 0.00 | 61 | 1011.5 |
| 20260905214629 | 33 | 148 | 11.3 | 11.3 | 0.00 | 0.00 | 0.00 | 60 | 1011.2 |
| 20260905214129 | 33 | 252 | 6.4 | 6.4 | 0.00 | 0.00 | 0.00 | 59 | 1011.1 |
| 20260905213624 | 34 | 210 | 4.8 | 17.7 | 0.00 | 0.00 | 0.00 | 57 | 1011.3 |
| 20260905213119 | 36 | 219 | 12.9 | 14.5 | 0.00 | 0.00 | 0.00 | 53 | 1011.3 |
| 20260905212614 | 36 | 202 | 4.8 | 6.4 | 0.00 | 0.00 | 0.00 | 46 | 1011.2 |
| 20260905212114 | 37 | 212 | 6.4 | 6.4 | 0.00 | 0.00 | 0.00 | 45 | 1011.2 |
| 20260905211609 | 37 | 204 | 6.4 | 6.4 | 0.00 | 0.00 | 0.00 | 43 | 1011.3 |
| 20260905211105 | 36 | 183 | 3.2 | 6.4 | 0.00 | 0.00 | 0.00 | 43 | 1011.4 |
| 20260905210601 | 36 | 225 | 3.2 | 6.4 | 0.00 | 0.00 | 0.00 | 46 | 1011.3 |
| 20260905210055 | 36 | 173 | 4.8 | 6.4 | 0.00 | 0.00 | 0.00 | 44 | 1011.5 |
| 20260905205554 | 37 | 212 | 4.8 | 6.4 | 0.00 | 0.00 | 0.00 | 44 | 1011.4 |
| 20260905205049 | 37 | 232 | 1.6 | 4.8 | 0.00 | 0.00 | 0.00 | 45 | 1011.5 |
| 20260905204549 | 37 | 243 | 1.6 | 6.4 | 0.00 | 0.00 | 0.00 | 45 | 1011.4 |
| 20260905204044 | 37 | 201 | 1.6 | 4.8 | 0.00 | 0.00 | 0.00 | 43 | 1011.6 |
| 20260905203543 | 37 | 157 | 3.2 | 4.8 | 0.00 | 0.00 | 0.00 | 45 | 1011.7 |
| 20260905203039 | 36 | 166 | 3.2 | 6.4 | 0.00 | 0.00 | 0.00 | 44 | 1011.7 |
| 20260905202535 | 36 | 193 | 3.2 | 4.8 | 0.00 | 0.00 | 0.00 | 45 | 1012.0 |
| 20260905202030 | 36 | 208 | 6.4 | 8.0 | 0.00 | 0.00 | 0.00 | 44 | 1011.9 |
| 20260905201526 | 36 | 252 | 3.2 | 4.8 | 0.00 | 0.00 | 0.00 | 46 | 1012.0 |
| 20260905201025 | 36 | 31 | 0.0 | 3.2 | 0.00 | 0.00 | 0.00 | 48 | 1012.2 |
| 20260905200521 | 36 | 221 | 3.2 | 3.2 | 0.00 | 0.00 | 0.00 | 46 | 1012.4 |
| 20260905200020 | 36 | 221 | 0.0 | 3.2 | 0.00 | 0.00 | 0.00 | 46 | 1012.4 |
| 20260905195520 | 36 | 231 | 0.0 | 0.0 | 0.00 | 0.00 | 0.00 | 46 | 1012.4 |
| 20260905195016 | 36 | 59 | 1.6 | 3.2 | 0.00 | 0.00 | 0.00 | 47 | 1012.4 |
| 20260905194516 | 35 | 208 | 3.2 | 6.4 | 0.00 | 0.00 | 0.00 | 48 | 1012.6 |
| 20260905194016 | 36 | 219 | 3.2 | 9.7 | 0.00 | 0.00 | 0.00 | 47 | 1012.5 |
| 20260905193515 | 35 | 188 | 0.0 | 6.4 | 0.00 | 0.00 | 0.00 | 49 | 1012.6 |
| 20260905193011 | 35 | 195 | 3.2 | 6.4 | 0.00 | 0.00 | 0.00 | 48 | 1012.6 |
| 20260905192506 | 36 | 196 | 4.8 | 4.8 | 0.00 | 0.00 | 0.00 | 47 | 1012.8 |
| 20260905192002 | 35 | 206 | 3.2 | 6.4 | 0.00 | 0.00 | 0.00 | 47 | 1012.7 |
| 20260905191501 | 35 | 181 | 4.8 | 8.0 | 0.00 | 0.00 | 0.00 | 46 | 1012.8 |
| 20260905191000 | 35 | 222 | 3.2 | 8.0 | 0.00 | 0.00 | 0.00 | 46 | 1012.9 |
| 20260905190458 | 35 | 333 | 3.2 | 4.8 | 0.00 | 0.00 | 0.00 | 48 | 1013.0 |
| 20260905185957 | 35 | 236 | 3.2 | 3.2 | 0.00 | 0.00 | 0.00 | 49 | 1013.0 |
| 20260905185452 | 35 | 227 | 1.6 | 3.2 | 0.00 | 0.00 | 0.00 | 49 | 1013.0 |
| 20260905184951 | 35 | 202 | 6.4 | 9.7 | 0.00 | 0.00 | 0.00 | 50 | 1012.9 |
| 20260905184446 | 35 | 164 | 6.4 | 8.0 | 0.00 | 0.00 | 0.00 | 48 | 1013.1 |
| 20260905183944 | 35 | 214 | 3.2 | 4.8 | 0.00 | 0.00 | 0.00 | 49 | 1013.1 |
| 20260905183439 | 35 | 261 | 3.2 | 4.8 | 0.00 | 0.00 | 0.00 | 49 | 1013.4 |
| 20260905182934 | 35 | 215 | 4.8 | 6.4 | 0.00 | 0.00 | 0.00 | 51 | 1013.3 |
| 20260905182433 | 35 | 196 | 1.6 | 4.8 | 0.00 | 0.00 | 0.00 | 48 | 1013.7 |
| 20260905181929 | 35 | 192 | 1.6 | 4.8 | 0.00 | 0.00 | 0.00 | 48 | 1013.7 |
| 20260905181429 | 35 | 119 | 0.0 | 3.2 | 0.00 | 0.00 | 0.00 | 48 | 1013.5 |
| 20260905180928 | 35 | 240 | 3.2 | 4.8 | 0.00 | 0.00 | 0.00 | 49 | 1013.5 |
| 20260905180423 | 35 | 161 | 3.2 | 6.4 | 0.00 | 0.00 | 0.00 | 47 | 1013.5 |
| 20260905175918 | 35 | 160 | 3.2 | 4.8 | 0.00 | 0.00 | 0.00 | 48 | 1013.4 |
| 20260905175418 | 35 | 229 | 3.2 | 4.8 | 0.00 | 0.00 | 0.00 | 49 | 1013.7 |
| 20260905174913 | 35 | 157 | 3.2 | 4.8 | 0.00 | 0.00 | 0.00 | 50 | 1013.9 |
| 20260905174409 | 35 | 176 | 3.2 | 4.8 | 0.00 | 0.00 | 0.00 | 49 | 1013.9 |
| 20260905173904 | 35 | 159 | 3.2 | 11.3 | 0.00 | 0.00 | 0.00 | 50 | 1014.0 |
| 20260905173400 | 35 | 176 | 3.2 | 6.4 | 0.00 | 0.00 | 0.00 | 50 | 1014.0 |
| 20260905172855 | 35 | 175 | 0.0 | 4.8 | 0.00 | 0.00 | 0.00 | 51 | 1014.2 |
| 20260905172353 | 35 | 172 | 3.2 | 6.4 | 0.00 | 0.00 | 0.00 | 49 | 1014.3 |
| 20260905171849 | 35 | 179 | 3.2 | 9.7 | 0.00 | 0.00 | 0.00 | 49 | 1014.4 |
| 20260905171345 | 35 | 176 | 3.2 | 4.8 | 0.00 | 0.00 | 0.00 | 49 | 1014.2 |
| 20260905170842 | 35 | 183 | 3.2 | 6.4 | 0.00 | 0.00 | 0.00 | 54 | 1014.4 |
| 20260905170338 | 35 | 163 | 9.7 | 9.7 | 0.00 | 0.00 | 0.00 | 52 | 1014.2 |
| 20260905165837 | 35 | 198 | 4.8 | 8.0 | 0.00 | 0.00 | 0.00 | 52 | 1014.6 |
| 20260905165332 | 35 | 204 | 0.0 | 6.4 | 0.00 | 0.00 | 0.00 | 53 | 1014.6 |
| 20260905164832 | 34 | 222 | 4.8 | 4.8 | 0.00 | 0.00 | 0.00 | 54 | 1014.5 |
| 20260905164327 | 34 | 172 | 3.2 | 8.0 | 0.00 | 0.00 | 0.00 | 53 | 1014.6 |
| 20260905163822 | 34 | 163 | 6.4 | 8.0 | 0.00 | 0.00 | 0.00 | 53 | 1014.7 |
| 20260905163319 | 34 | 353 | 1.6 | 9.7 | 0.00 | 0.00 | 0.00 | 53 | 1014.7 |
| 20260905162815 | 34 | 213 | 6.4 | 6.4 | 0.00 | 0.00 | 0.00 | 54 | 1014.9 |
| 20260905162314 | 34 | 307 | 1.6 | 6.4 | 0.00 | 0.00 | 0.00 | 55 | 1015.0 |
| 20260905161809 | 34 | 167 | 6.4 | 8.0 | 0.00 | 0.00 | 0.00 | 55 | 1015.0 |
| 20260905161308 | 34 | 207 | 3.2 | 6.4 | 0.00 | 0.00 | 0.00 | 55 | 1014.9 |
| 20260905160806 | 34 | 177 | 4.8 | 8.0 | 0.00 | 0.00 | 0.00 | 56 | 1015.0 |
| 20260905160300 | 34 | 327 | 1.6 | 6.4 | 0.00 | 0.00 | 0.00 | 56 | 1015.0 |
| 20260905155755 | 33 | 179 | 1.6 | 4.8 | 0.00 | 0.00 | 0.00 | 56 | 1014.9 |
| 20260905155254 | 33 | 283 | 0.0 | 6.4 | 0.00 | 0.00 | 0.00 | 56 | 1015.1 |
| 20260905154748 | 33 | 180 | 0.0 | 3.2 | 0.00 | 0.00 | 0.00 | 56 | 1015.0 |
| 20260905154245 | 33 | 190 | 3.2 | 4.8 | 0.00 | 0.00 | 0.00 | 56 | 1015.1 |
| 20260905153740 | 33 | 152 | 0.0 | 4.8 | 0.00 | 0.00 | 0.00 | 58 | 1015.2 |
| 20260905153236 | 32 | 204 | 3.2 | 4.8 | 0.00 | 0.00 | 0.00 | 61 | 1015.2 |
| 20260905152731 | 32 | 184 | 3.2 | 3.2 | 0.00 | 0.00 | 0.00 | 60 | 1015.2 |
| 20260905152230 | 32 | 124 | 0.0 | 4.8 | 0.00 | 0.00 | 0.00 | 62 | 1015.2 |
| 20260905151730 | 31 | 217 | 0.0 | 3.2 | 0.00 | 0.00 | 0.00 | 62 | 1015.2 |
| 20260905151226 | 31 | 178 | 4.8 | 4.8 | 0.00 | 0.00 | 0.00 | 64 | 1015.3 |
| 20260905150721 | 31 | 206 | 4.8 | 9.7 | 0.00 | 0.00 | 0.00 | 65 | 1015.2 |
| 20260905150220 | 30 | 202 | 3.2 | 4.8 | 0.00 | 0.00 | 0.00 | 68 | 1015.3 |
| 20260905145718 | 30 | 224 | 0.0 | 3.2 | 0.00 | 0.00 | 0.00 | 68 | 1015.4 |
| 20260905145213 | 29 | 166 | 0.0 | 4.8 | 0.00 | 0.00 | 0.00 | 70 | 1015.3 |
| 20260905144712 | 29 | 170 | 0.0 | 4.8 | 0.00 | 0.00 | 0.00 | 70 | 1015.4 |
| 20260905144212 | 29 | 179 | 1.6 | 3.2 | 0.00 | 0.00 | 0.00 | 71 | 1015.2 |
| 20260905143711 | 28 | 165 | 3.2 | 4.8 | 0.00 | 0.00 | 0.00 | 71 | 1015.4 |
| 20260905143206 | 28 | 188 | 3.2 | 3.2 | 0.00 | 0.00 | 0.00 | 71 | 1015.4 |
| 20260905142704 | 28 | 320 | 1.6 | 3.2 | 0.00 | 0.00 | 0.00 | 72 | 1015.6 |
| 20260905142205 | 28 | 306 | 1.6 | 3.2 | 0.00 | 0.00 | 0.00 | 73 | 1015.6 |
| 20260905141700 | 27 | 224 | 0.0 | 3.2 | 0.00 | 0.00 | 0.00 | 77 | 1015.3 |
| 20260905141156 | 27 | 203 | 1.6 | 4.8 | 0.00 | 0.00 | 0.00 | 77 | 1015.6 |
| 20260905140651 | 27 | 182 | 0.0 | 4.8 | 0.00 | 0.00 | 0.00 | 77 | 1015.6 |
| 20260905140150 | 27 | 185 | 3.2 | 4.8 | 0.00 | 0.00 | 0.00 | 78 | 1015.4 |
| 20260905135646 | 26 | 210 | 3.2 | 3.2 | 0.00 | 0.00 | 0.00 | 79 | 1015.5 |
| 20260905135141 | 26 | 225 | 1.6 | 3.2 | 0.00 | 0.00 | 0.00 | 79 | 1015.5 |
| 20260905134635 | 26 | 194 | 1.6 | 1.6 | 0.00 | 0.00 | 0.00 | 81 | 1015.5 |
| 20260905134134 | 26 | 198 | 1.6 | 3.2 | 0.00 | 0.00 | 0.00 | 81 | 1015.6 |
| 20260905133630 | 26 | 225 | 0.0 | 3.2 | 0.00 | 0.00 | 0.00 | 83 | 1015.6 |
| 20260905133130 | 25 | 196 | 1.6 | 3.2 | 0.00 | 0.00 | 0.00 | 83 | 1015.6 |
| 20260905132630 | 25 | 175 | 3.2 | 3.2 | 0.00 | 0.00 | 0.00 | 84 | 1015.5 |
| 20260905132124 | 25 | 220 | 0.0 | 1.6 | 0.00 | 0.00 | 0.00 | 86 | 1015.5 |
| 20260905131620 | 25 | 229 | 3.2 | 3.2 | 0.00 | 0.00 | 0.00 | 87 | 1015.7 |
| 20260905131115 | 25 | 225 | 1.6 | 3.2 | 0.00 | 0.00 | 0.00 | 89 | 1015.6 |
| 20260905130615 | 25 | 222 | 1.6 | 1.6 | 0.00 | 0.00 | 0.00 | 89 | 1015.7 |
| 20260905130109 | 24 | 201 | 1.6 | 1.6 | 0.00 | 0.00 | 0.00 | 90 | 1015.8 |
| 20260905125608 | 24 | 217 | 1.6 | 3.2 | 0.00 | 0.00 | 0.00 | 91 | 1015.6 |
| 20260905125104 | 24 | 236 | 1.6 | 3.2 | 0.00 | 0.00 | 0.00 | 91 | 1015.6 |
| 20260905124601 | 23 | 183 | 0.0 | 3.2 | 0.00 | 0.00 | 0.00 | 91 | 1015.7 |
| 20260905124056 | 23 | 185 | 0.0 | 1.6 | 0.00 | 0.00 | 0.00 | 92 | 1015.7 |
| 20260905123552 | 23 | 174 | 1.6 | 3.2 | 0.00 | 0.00 | 0.00 | 92 | 1015.5 |